STARLINK-6098, 56906

Orbit data source: Space-Track

STARLINK-6098, 56906 is a payload satellite owned by SpaceX/Seattle (US) in LEO that was launched on Mon, 12 Jun 2023 UTC via an FALCON 9 launch vehicle from the Air Force Eastern Test Range (AFETR). Payload-class satellites include a variety of spacecraft equipped with specific instruments for various scientific and technological missions. These include communications satellites like Starlink; space stations such as the ISS; scientific satellites like the Hubble; Earth observation satellites from companies like Planet Labs, Umbra, and HawkEye 360; GPS; miniature CubeSats for education and research; and military/defense satellites.

Loading next visibility...
Identifier
56906, 2023-083AG
Orbit
LEO
Country
Flag of USUS
Related business
Manufacturer
SpaceX/Seattle
Mission
Operational Commercial Communications
Bus & Motor
STARLINK, Unknown motor
Mass
305 kg wet, ~290 kg dry
Launch date (UTC)
2023-06-12 (3 years ago)
Launch vehicle
FALCON 9
Launch site
Air Force Eastern Test Range (AFETR)
Object type
Payload
Rocket body
Debris
Shape & HBR
Box + 1 Pan, 10.1 m
Radar Cross Section
11.087 m², Large (>1 m²)

Expand to show TLE details & history
Last TLE update: 2 days ago

TLE from 2 days ago
0 STARLINK-6098
1 56906U 23083AG  26171.16512694 -.00000088  00000-0  63519-5 0  9999
2 56906  43.0038 211.6827 0001868 285.2567  74.8078 15.27574029167472
Epoch: 2026-06-20T03:57Z
TLE epoch observation values (Epoch: 2026-06-20T03:57:46.967Z)
Latitude
-0.00003°
Longitude
-116.1467°
Altitude
482.507 km
Speed
7.626 km/s
True Right ascension
14h 06m 43s
True Declination
0° 00' 00"
Sunlit
Object was in full shadow at epoch
Visualization orbit readout
Latitude
Unknown
Longitude
Unknown
Altitude
Unknown
Speed
Unknown
Apparent Right ascension
Unknown
Apparent Declination
Unknown
Sunlit
N/A
Visualization observer readout
Local Sidereal Time
21:29:40
Azimuth
Unknown
Elevation
Unknown
Doppler factor
Unknown
Orbital elements
Apogee altitude
486.294 km
Perigee altitude
483.729 km
Semi-major axis
6,863.149 km
Eccentricity
0.00019
Inclination
43.0038°
RAAN
211.6827°
Arg. of periapsis
285.2567°
True anomaly
74.82846°
Mean anomaly
74.8078°
Eccentric anomaly
74.81813°
Mean motion
3.81732 °/min
Orbital period
94.31 mins
BSTAR
0.0000063519
Loading maneuver chart data...
Computing Atmospheric mass density...
Loading historical data...
Loading historical data...
Loading historical data...
Loading historical data...
Loading historical data...
Loading historical data...
Loading historical data...

Documentation

Showing up to 5 results
|